When you browse on this site, cookies collect data to enhance your experience and personalize the content and advertising you see.
Visit our Privacy Policy to learn more. By continuing to use the site, you agree to this use of cookies and data.
  • In Deutschland
  • Länderverzeichnis
  • Für 7 Tage
  • Wassertemperatur
  • Wetterkarte
  • Widgets
  • user-avatar
    Anmelden

    Stündliche Wetter Kiskunfelegyhaza

    Heute, 25 Februar, Dienstag

    Zeit Temperatur Niederschläge Wind Luftdruck Luftfeuchtigkeit
    00:00 +4°C° 0 mm 3 m/S 754 mmHg 64%
    01:00 +4°C° 0 mm 3 m/S 753 mmHg 66%
    02:00 +4°C° 0 mm 4 m/S 753 mmHg 67%
    03:00 +4°C° 0 mm 4 m/S 752 mmHg 68%
    04:00 +3°C° 0 mm 4 m/S 751 mmHg 68%
    05:00 +3°C° 0 mm 4 m/S 751 mmHg 68%
    06:00 +3°C° 0 mm 4 m/S 751 mmHg 68%
    07:00 +3°C° 0 mm 3 m/S 750 mmHg 68%
    08:00 +5°C° 0 mm 4 m/S 750 mmHg 64%
    09:00 +7°C° 0 mm 4 m/S 750 mmHg 59%
    10:00 +8°C° 0 mm 4 m/S 749 mmHg 54%
    11:00 +11°C° 0 mm 4 m/S 749 mmHg 53%
    12:00 +13°C° 0 mm 4 m/S 748 mmHg 53%
    13:00 +15°C° 0 mm 5 m/S 748 mmHg 52%
    14:00 +14°C° 0 mm 4 m/S 747 mmHg 54%
    15:00 +14°C° 0 mm 4 m/S 746 mmHg 57%
    16:00 +14°C° 0 mm 4 m/S 745 mmHg 60%
    17:00 +13°C° 0 mm 4 m/S 745 mmHg 62%
    18:00 +12°C° 0 mm 4 m/S 745 mmHg 65%
    19:00 +11°C° 0 mm 4 m/S 745 mmHg 67%
    20:00 +11°C° 0 mm 4 m/S 745 mmHg 70%
    21:00 +10°C° 0 mm 4 m/S 744 mmHg 73%
    22:00 +8°C° 0 mm 4 m/S 744 mmHg 75%
    23:00 +10°C° 0 mm 4 m/S 743 mmHg 74%

    Morgen, 26 Februar, Mittwoch

    Zeit Temperatur Niederschläge Wind Luftdruck Luftfeuchtigkeit
    00:00 +10°C° 0 mm 4 m/S 743 mmHg 74%
    01:00 +9°C° 0 mm 5 m/S 742 mmHg 73%
    02:00 +9°C° 0 mm 5 m/S 742 mmHg 73%
    03:00 +8°C° 0 mm 5 m/S 741 mmHg 74%
    04:00 +8°C° 0 mm 5 m/S 740 mmHg 74%
    05:00 +8°C° 0.4 mm 5 m/S 740 mmHg 77%
    06:00 +8°C° 0.4 mm 5 m/S 740 mmHg 80%
    07:00 +7°C° 0.4 mm 5 m/S 739 mmHg 83%
    08:00 +8°C° 1 mm 5 m/S 739 mmHg 80%
    09:00 +8°C° 1 mm 4 m/S 739 mmHg 78%
    10:00 +9°C° 1 mm 3 m/S 739 mmHg 76%
    11:00 +8°C° 0.3 mm 4 m/S 739 mmHg 71%
    12:00 +10°C° 0.3 mm 4 m/S 739 mmHg 66%
    13:00 +10°C° 0.3 mm 4 m/S 739 mmHg 61%
    14:00 +10°C° 0.1 mm 4 m/S 738 mmHg 61%
    15:00 +8°C° 0.1 mm 4 m/S 738 mmHg 62%
    16:00 +8°C° 0.1 mm 5 m/S 738 mmHg 63%
    17:00 +7°C° 0.1 mm 4 m/S 738 mmHg 64%
    18:00 +6°C° 0.1 mm 4 m/S 739 mmHg 65%
    19:00 +7°C° 0.1 mm 3 m/S 739 mmHg 66%
    20:00 +5°C° 0 mm 3 m/S 740 mmHg 65%
    21:00 +5°C° 0 mm 3 m/S 740 mmHg 64%
    22:00 +4°C° 0 mm 3 m/S 740 mmHg 63%
    23:00 +4°C° 0 mm 4 m/S 741 mmHg 64%

    übermorgen, 27 Februar, Donnerstag

    Zeit Temperatur Niederschläge Wind Luftdruck Luftfeuchtigkeit
    00:00 +3°C° 0 mm 4 m/S 741 mmHg 65%
    01:00 +2°C° 0 mm 5 m/S 741 mmHg 66%
    02:00 +2°C° 0 mm 5 m/S 742 mmHg 66%
    03:00 +1°C° 0 mm 6 m/S 742 mmHg 67%
    04:00 +1°C° 0 mm 6 m/S 742 mmHg 68%
    05:00 0°C° 0 mm 7 m/S 743 mmHg 68%
    06:00 0°C° 0 mm 7 m/S 744 mmHg 69%
    07:00 0°C° 0 mm 8 m/S 744 mmHg 69%
    08:00 +1°C° 0 mm 8 m/S 745 mmHg 65%
    09:00 +2°C° 0 mm 9 m/S 746 mmHg 61%
    10:00 +3°C° 0 mm 9 m/S 746 mmHg 57%
    11:00 +4°C° 0 mm 8 m/S 746 mmHg 54%
    12:00 +5°C° 0 mm 8 m/S 746 mmHg 51%
    13:00 +6°C° 0 mm 8 m/S 746 mmHg 48%
    14:00 +6°C° 0 mm 7 m/S 746 mmHg 48%
    15:00 +6°C° 0 mm 7 m/S 746 mmHg 47%
    16:00 +5°C° 0 mm 6 m/S 746 mmHg 46%
    17:00 +5°C° 0 mm 5 m/S 746 mmHg 51%
    18:00 +4°C° 0 mm 4 m/S 746 mmHg 55%
    19:00 +3°C° 0 mm 3 m/S 746 mmHg 60%
    20:00 +3°C° 0 mm 4 m/S 745 mmHg 59%
    21:00 +2°C° 0 mm 5 m/S 745 mmHg 58%
    22:00 +2°C° 0 mm 6 m/S 744 mmHg 58%
    23:00 +3°C° 0 mm 7 m/S 744 mmHg 57%

    28 Februar, Freitag

    Zeit Temperatur Niederschläge Wind Luftdruck Luftfeuchtigkeit
    00:00 +2°C° 0 mm 8 m/S 743 mmHg 56%
    01:00 +2°C° 0 mm 9 m/S 743 mmHg 56%
    02:00 +2°C° 0.1 mm 9 m/S 742 mmHg 57%
    03:00 +4°C° 0.1 mm 8 m/S 742 mmHg 58%
    04:00 +4°C° 0.1 mm 8 m/S 741 mmHg 60%
    05:00 +2°C° 0 mm 8 m/S 742 mmHg 61%
    06:00 +3°C° 0 mm 7 m/S 742 mmHg 62%
    07:00 +3°C° 0 mm 7 m/S 742 mmHg 63%
    08:00 +2°C° 0 mm 8 m/S 744 mmHg 60%
    09:00 +3°C° 0 mm 9 m/S 745 mmHg 57%
    10:00 +4°C° 0 mm 11 m/S 746 mmHg 54%
    11:00 +4°C° 0 mm 11 m/S 747 mmHg 53%
    12:00 +4°C° 0 mm 11 m/S 747 mmHg 53%
    13:00 +4°C° 0 mm 11 m/S 748 mmHg 52%
    14:00 +5°C° 0 mm 10 m/S 749 mmHg 50%
    15:00 +5°C° 0 mm 10 m/S 749 mmHg 47%
    16:00 +5°C° 0 mm 9 m/S 750 mmHg 45%
    17:00 +4°C° 0 mm 8 m/S 751 mmHg 48%
    18:00 +3°C° 0 mm 7 m/S 751 mmHg 51%
    19:00 +2°C° 0 mm 5 m/S 752 mmHg 54%
    20:00 +2°C° 0 mm 5 m/S 753 mmHg 57%
    21:00 +1°C° 0 mm 4 m/S 753 mmHg 60%
    22:00 +1°C° 0 mm 4 m/S 754 mmHg 63%
    23:00 0°C° 0 mm 4 m/S 754 mmHg 66%

    29 Februar, Samstag

    Zeit Temperatur Niederschläge Wind Luftdruck Luftfeuchtigkeit
    00:00 0°C° 0 mm 4 m/S 754 mmHg 68%
    01:00 0°C° 0 mm 4 m/S 754 mmHg 71%
    02:00 0°C° 0 mm 3 m/S 753 mmHg 72%
    03:00 0°C° 0 mm 3 m/S 753 mmHg 72%
    04:00 0°C° 0 mm 3 m/S 753 mmHg 73%
    05:00 0°C° 0 mm 3 m/S 753 mmHg 71%
    06:00 0°C° 0 mm 3 m/S 753 mmHg 69%
    07:00 0°C° 0 mm 3 m/S 753 mmHg 66%
    08:00 +1°C° 0 mm 4 m/S 752 mmHg 58%
    09:00 +3°C° 0 mm 5 m/S 752 mmHg 50%
    10:00 +5°C° 0 mm 6 m/S 752 mmHg 42%
    11:00 +7°C° 0 mm 6 m/S 751 mmHg 39%
    12:00 +8°C° 0 mm 6 m/S 751 mmHg 35%
    13:00 +9°C° 0 mm 7 m/S 750 mmHg 32%
    14:00 +9°C° 0 mm 6 m/S 750 mmHg 34%
    15:00 +9°C° 0 mm 5 m/S 749 mmHg 37%
    16:00 +8°C° 0 mm 5 m/S 749 mmHg 39%
    17:00 +8°C° 0 mm 5 m/S 748 mmHg 43%
    18:00 +7°C° 0 mm 5 m/S 748 mmHg 46%
    19:00 +6°C° 0 mm 5 m/S 748 mmHg 50%
    20:00 +5°C° 0 mm 6 m/S 748 mmHg 51%
    21:00 +5°C° 0 mm 6 m/S 748 mmHg 52%
    22:00 +5°C° 0 mm 6 m/S 747 mmHg 53%
    23:00 +5°C° 0 mm 6 m/S 747 mmHg 55%

    1 März, Sonntag

    Zeit Temperatur Niederschläge Wind Luftdruck Luftfeuchtigkeit
    00:00 +5°C° 0 mm 6 m/S 747 mmHg 58%
    01:00 +5°C° 0 mm 6 m/S 747 mmHg 60%
    02:00 +5°C° 0.6 mm 6 m/S 746 mmHg 68%
    03:00 +5°C° 0.6 mm 7 m/S 746 mmHg 77%
    04:00 +5°C° 0.6 mm 7 m/S 746 mmHg 86%
    05:00 +5°C° 0.6 mm 6 m/S 746 mmHg 83%
    06:00 +5°C° 0.6 mm 4 m/S 746 mmHg 81%
    07:00 +5°C° 0.6 mm 3 m/S 747 mmHg 79%
    08:00 +7°C° 0 mm 3 m/S 747 mmHg 76%
    09:00 +6°C° 0 mm 4 m/S 747 mmHg 73%
    10:00 +7°C° 0 mm 4 m/S 748 mmHg 70%
    11:00 +7°C° 0.1 mm 5 m/S 748 mmHg 66%
    12:00 +8°C° 0.1 mm 5 m/S 748 mmHg 62%
    13:00 +8°C° 0.1 mm 5 m/S 747 mmHg 57%
    14:00 +8°C° 0 mm 4 m/S 747 mmHg 57%
    15:00 +8°C° 0 mm 3 m/S 747 mmHg 56%
    16:00 +8°C° 0 mm 2 m/S 747 mmHg 55%
    17:00 +7°C° 0 mm 2 m/S 748 mmHg 61%
    18:00 +6°C° 0 mm 2 m/S 748 mmHg 67%
    19:00 +5°C° 0 mm 2 m/S 749 mmHg 72%
    20:00 +4°C° 0 mm 3 m/S 749 mmHg 74%
    21:00 +4°C° 0 mm 3 m/S 749 mmHg 76%
    22:00 +3°C° 0 mm 3 m/S 750 mmHg 78%
    23:00 +3°C° 0 mm 3 m/S 750 mmHg 81%
    Mehr zeigen